Flag for Hungary Weather past 2 weeks in Budapest, Hungary

Now
63 °F

Clear.


Feels Like: 63 °F
Forecast: 60 / 85 °F
Wind: 2 mph from North

Location: Ferenc Liszt International Airport

Current Time: Jul 25, 2014 at 6:35:29 AM

Latest Report: Jul 25, 2014 at 6:00 AM


Visibility: 10 mi

Pressure: 29.92 "Hg

Humidity: 88%

Dew point: 59 °F

Location of BudapestLocation

Historic Weather in Budapest — Graph

°F

Budapest temperature yesterday

Maximum temperature yesterday: 79 °F (at 2:00 PM)
Minimum temperature yesterday: 59 °F (at 2:30 AM)
Average temperature yesterday: 70 °F

Past Weeks' High & Low Weather Summary

 TemperatureHumidityPressure
High91 °F (Jul 21, 2:00 PM)100% (Jul 11, 8:30 AM)30.07 "Hg (Jul 11, 8:30 AM)
Low55 °F (Jul 10, 5:00 AM)31% (Jul 20, 4:30 PM)29.59 "Hg (Jul 11, 3:30 PM)
Average73 °F66%29.88 "Hg
* Reported Jul 10 5:00 AM — Jul 25 5:30 AM, Budapest, Weather by CustomWeather, © 2014

Note: Actual official high and low records may vary slightly from our data, if they occured in-between our weather recording intervals... More about our weather records

Advertising

Budapest weather history for previous 24 hours

 ConditionsComfort  
Time TempWeatherWind HumidityBarometerVisibility
5:30 AM
Jul 25
63 °FClear.5 mph88%29.92 "Hg10 mi
5:00 AM61 °FClear.5 mph88%29.89 "Hg10 mi
4:30 AM61 °FClear.2 mph88%29.89 "Hg10 mi
4:00 AM84 °FPassing clouds.14 mph40%30.01 "HgN/A
3:30 AM61 °FClear.5 mph88%29.89 "Hg10 mi
3:00 AM61 °FClear.No wind94%29.89 "Hg10 mi
2:30 AM61 °FClear.No wind94%29.89 "Hg10 mi
2:00 AM64 °FClear.3 mph83%29.89 "Hg10 mi
1:30 AM63 °FClear.5 mph88%29.89 "Hg10 mi
1:00 AM63 °FClear.5 mph88%29.89 "Hg10 mi
12:30 AM63 °FClear.1 mph88%29.89 "Hg10 mi
12:00 AM64 °FClear.1 mph83%29.89 "Hg10 mi
11:30 PM
Jul 24
64 °FClear.No wind83%29.89 "Hg10 mi
11:00 PM66 °FClear.1 mph78%29.89 "Hg10 mi
10:30 PM66 °FClear.1 mph78%29.89 "Hg10 mi
10:00 PM70 °FClear.3 mph69%29.86 "Hg10 mi
9:30 PM68 °FClear.6 mph69%29.86 "Hg10 mi
9:00 PM72 °FSunny.6 mph61%29.86 "Hg10 mi
8:30 PM72 °FSunny.8 mph61%29.86 "Hg10 mi
8:00 PM75 °FSunny.7 mph54%29.83 "Hg10 mi
7:30 PM77 °FSunny.9 mph47%29.83 "Hg10 mi
7:00 PM77 °FSunny.12 mph47%29.83 "Hg10 mi
6:30 PM79 °FPassing clouds.13 mph45%29.83 "HgN/A
6:00 PM79 °FPassing clouds.12 mph45%29.83 "HgN/A
5:30 PM79 °FPassing clouds.13 mph45%29.83 "HgN/A
5:00 PM77 °FSunny.12 mph51%29.83 "Hg10 mi
4:30 PM77 °FSunny.10 mph51%29.83 "Hg10 mi
4:00 PM79 °FSunny.9 mph45%29.83 "Hg10 mi
3:30 PM79 °FPassing clouds.7 mph45%29.83 "HgN/A
3:00 PM79 °FPassing clouds.10 mph45%29.83 "HgN/A
2:30 PM79 °FPassing clouds.8 mph48%29.83 "HgN/A
2:00 PM79 °FBroken clouds.7 mph48%29.83 "HgN/A
1:30 PM77 °FBroken clouds.7 mph51%29.83 "HgN/A
1:00 PM75 °FBroken clouds.9 mph57%29.83 "HgN/A
12:30 PM77 °FBroken clouds.6 mph54%29.80 "HgN/A
11:30 AM73 °FScattered clouds.5 mph57%29.80 "HgN/A
11:00 AM73 °FScattered clouds.6 mph57%29.80 "HgN/A
10:30 AM75 °FScattered clouds.3 mph61%29.80 "HgN/A
10:00 AM73 °FPassing clouds.3 mph65%29.80 "HgN/A
9:30 AM72 °FScattered clouds.5 mph69%29.80 "HgN/A
9:00 AM72 °FScattered clouds.2 mph61%29.80 "HgN/A
8:30 AM70 °FScattered clouds.2 mph69%29.80 "HgN/A
7:30 AM66 °FSunny.1 mph83%29.80 "Hg10 mi
7:00 AM64 °FSunny.1 mph94%29.80 "Hg10 mi
6:30 AM63 °FSunny.3 mph94%29.80 "Hg10 mi
6:00 AM59 °FClear.1 mph94%29.80 "Hg10 mi
Weather by CustomWeather, © 2014

See weather overviewHow to use our weather pages